GFSNGP_850_thetae_132.txt.gz
Theta_e
322 323 322 321 323 321 322 320 323 321 322 320 320 328 330 332 332 333 333 334 334 333 333 332 328 325 324 326 323 323 321 318 316 322 324 325 324 325 326 328 327 328 329 330
323 324 323 324 323 322 323 320 321 319 319 316 319 329 332 332 332 333 334 333 333 333 332 329 326 325 326 324 323 321 318 317 320 326 324 326 326 325 329 328 327 326 330 330
323 324 324 324 323 323 322 320 321 322 320 322 328 330 332 332 332 333 333 333 332 332 330 328 328 327 325 323 320 320 317 317 317 324 327 327 327 325 328 325 325 328 330 330
320 322 326 321 320 322 323 323 320 321 321 323 327 330 332 333 333 333 332 331 331 329 328 328 327 327 325 321 320 320 315 315 317 326 327 327 325 328 322 322 325 330 331 330
323 322 321 325 324 323 324 324 326 327 328 329 329 330 331 333 332 330 329 329 326 329 329 329 328 327 323 321 318 316 315 315 325 326 326 327 326 326 324 321 322 330 332 332
318 324 325 322 322 323 323 325 326 329 327 329 330 330 328 330 329 330 326 327 329 330 331 329 328 327 324 324 322 315 316 316 325 325 328 326 326 327 327 321 321 322 331 334
320 321 320 319 323 324 326 323 324 325 329 330 328 329 330 330 330 327 326 328 330 331 330 329 329 328 327 324 319 316 315 318 323 325 327 325 324 327 327 321 320 321 321 330
317 321 322 323 325 327 322 327 328 327 328 330 330 329 329 329 328 327 327 329 330 331 329 327 328 327 328 322 320 318 315 322 325 327 326 324 323 325 326 321 319 322 321 319
318 319 320 322 321 318 322 323 326 328 328 330 329 329 329 329 328 327 327 329 330 331 329 328 327 328 326 322 321 320 316 322 322 323 325 325 323 322 323 323 319 321 324 316
316 318 320 321 319 318 320 323 324 323 327 329 330 330 329 328 328 328 328 329 330 332 329 327 326 328 323 323 325 320 317 320 321 321 322 326 323 323 320 322 320 322 324 324
315 316 318 318 318 318 318 321 322 322 322 326 328 329 329 329 328 328 326 327 331 332 327 324 326 326 322 324 326 317 320 320 321 320 322 324 324 325 320 319 321 321 321 322
316 316 316 317 317 317 316 317 318 320 321 323 325 327 327 328 327 326 325 329 332 330 327 322 325 323 324 325 324 321 323 321 321 321 321 320 321 325 325 320 319 319 320 321
316 316 314 312 312 311 313 314 315 316 317 317 322 324 326 325 323 323 322 326 329 329 323 323 323 324 325 325 320 324 321 320 321 321 320 320 319 320 321 322 320 320 320 321
315 312 311 312 313 313 314 315 315 313 314 315 317 323 323 324 325 322 322 322 326 327 322 323 324 324 325 318 319 323 323 322 321 322 320 319 320 320 319 320 321 321 321 319
312 313 313 313 313 314 314 316 317 316 316 316 317 322 322 323 322 323 322 323 330 323 322 323 324 325 320 322 323 323 322 322 322 322 321 321 321 320 321 320 319 321 322 320
313 315 314 312 313 313 314 316 318 318 319 320 319 321 321 321 321 322 322 327 327 324 322 322 325 324 322 324 323 322 322 323 322 322 322 322 321 320 320 321 321 323 321 321
318 318 318 317 314 314 314 314 317 317 319 320 321 321 323 323 323 324 327 327 324 323 322 322 324 324 322 323 322 322 322 322 322 322 321 320 320 320 320 321 322 321 322 321
317 317 319 318 318 315 315 317 317 317 317 317 323 325 325 325 326 326 325 324 323 323 323 323 324 323 323 323 323 322 322 321 321 320 320 320 320 321 321 321 321 320 319 317
321 319 318 315 315 314 315 316 316 317 317 318 322 324 323 323 324 325 325 323 322 322 323 324 324 324 323 323 322 323 322 321 319 318 318 320 320 320 320 319 319 317 316 315
320 319 318 318 318 319 319 318 320 319 320 322 321 321 322 322 323 323 323 323 322 322 323 323 323 322 322 321 321 320 318 317 316 316 317 318 318 317 317 316 315 315 314 313
319 321 320 321 318 320 320 320 320 320 320 322 321 320 322 322 322 322 322 322 321 322 321 321 321 318 319 319 318 315 314 315 312 311 311 310 309 308 307 306 306 305 305 304
321 321 320 320 322 322 324 323 322 323 322 321 323 323 322 322 322 322 322 322 320 319 318 318 317 317 316 315 314 313 311 310 308 307 305 305 304 304 303 303 303 303 302 302
321 321 321 321 320 320 321 323 320 321 323 323 323 322 322 322 322 320 319 315 311 313 312 311 311 310 310 309 307 306 305 304 303 303 302 302 302 302 302 302 302 302 302 301
320 320 320 320 321 322 321 321 320 321 321 322 322 322 321 318 313 311 311 308 307 306 306 305 305 305 305 304 303 303 302 302 302 302 302 302 302 302 301 300 298 297 297 298
319 320 320 320 320 319 319 319 318 318 319 317 317 316 315 314 312 304 303 304 304 304 304 303 303 303 302 302 302 302 302 301 301 302 302 302 300 298 297 296 296 296 297 298
319 319 318 319 319 320 319 318 317 313 310 309 309 311 311 306 304 305 304 304 303 303 302 302 302 302 301 301 302 301 301 300 301 301 300 299 297 297 297 296 296 294 294 295
320 319 318 318 318 316 316 315 314 314 313 310 307 307 307 307 306 306 305 304 303 303 303 302 302 301 301 301 301 301 301 300 299 299 298 298 298 298 298 298 297 297 295 294

GFSNGP_850_thetae_138.txt.gz
Theta_e
331 331 331 331 332 332 333 333 334 334 334 335 334 332 331 332 338 341 344 345 344 344 343 343 341 338 334 329 324 320 322 323 323 321 317 320 328 331 332 332 332 331 330 326
332 331 330 330 330 331 333 332 333 334 334 333 331 330 330 331 333 338 342 344 344 344 344 342 340 338 331 324 320 321 323 324 322 319 317 327 331 332 332 332 331 330 327 325
334 333 332 333 332 332 333 333 333 334 333 333 330 330 331 331 331 332 335 342 344 343 342 341 339 333 325 322 321 322 322 324 321 318 320 329 331 332 332 331 328 329 325 325
334 336 336 333 332 331 332 332 332 331 332 331 330 330 330 331 332 334 335 337 342 342 341 340 337 325 323 322 322 322 325 325 321 323 325 329 331 331 329 329 327 327 324 323
334 335 333 332 332 331 332 333 332 332 332 330 332 332 329 329 335 335 336 339 340 341 340 338 330 324 325 323 323 326 327 323 323 323 326 330 331 330 324 328 328 325 324 321
333 331 332 331 332 330 331 333 333 333 334 333 333 331 329 337 336 338 339 340 341 340 337 333 324 326 327 332 327 323 324 321 318 326 328 329 329 324 321 321 325 323 323 320
332 333 330 332 331 329 333 335 333 333 334 334 334 332 336 335 338 340 340 341 340 336 332 330 330 329 329 330 324 325 322 318 326 329 327 325 322 323 322 320 322 324 323 319
332 333 333 330 330 332 334 332 332 333 332 334 335 335 335 335 336 340 340 338 335 332 333 336 333 328 330 328 325 326 321 324 327 329 328 324 318 321 322 319 325 322 322 321
331 333 331 330 331 329 331 332 331 330 330 330 333 334 335 335 336 338 338 336 334 333 336 336 328 328 330 327 325 327 327 331 327 327 328 323 325 323 325 324 324 323 320 323
330 331 329 326 325 325 326 327 325 325 325 324 326 328 331 334 335 338 337 336 334 335 336 338 331 329 330 328 326 326 328 330 323 328 328 326 326 326 327 325 322 323 320 323
329 329 328 327 327 325 324 324 322 321 320 320 321 323 325 328 332 335 336 336 335 336 336 338 338 331 331 327 325 326 329 329 324 323 325 324 324 324 325 326 321 321 321 321
325 328 328 327 326 324 322 320 319 317 316 315 316 317 319 322 324 329 333 335 336 337 336 338 339 337 331 327 324 327 330 326 324 323 323 323 322 323 324 323 321 321 321 322
325 323 323 322 322 320 318 316 315 315 316 317 317 318 319 318 319 322 328 331 335 337 337 333 325 325 331 326 323 327 330 324 324 324 324 323 323 324 324 324 322 321 321 322
316 317 316 317 316 315 316 315 316 316 317 317 318 319 320 321 321 320 326 331 332 333 324 326 328 332 330 325 327 330 327 323 324 323 324 324 321 320 324 326 324 324 320 320
315 315 316 315 315 315 315 315 316 315 316 317 318 319 320 321 322 322 326 330 332 331 332 330 333 332 330 329 328 326 325 324 324 324 324 324 322 323 325 325 324 321 321 322
316 319 320 318 317 319 320 320 320 319 316 317 318 319 321 323 324 326 327 329 329 328 319 330 333 330 330 329 327 325 326 324 323 324 323 324 324 324 325 324 323 322 320 319
323 323 323 322 322 322 322 321 321 319 317 318 319 321 323 322 326 329 329 330 331 324 331 333 331 330 330 328 326 325 324 324 322 322 322 323 324 324 324 323 322 319 317 316
323 322 323 323 324 324 322 320 320 320 320 322 323 323 323 325 328 326 326 319 325 322 322 330 330 329 326 325 323 324 324 323 323 323 323 324 324 324 322 321 321 319 318 315
322 323 323 324 324 323 324 324 324 324 324 324 323 323 325 323 324 327 328 325 326 323 326 327 323 323 322 322 322 321 321 320 320 321 322 321 322 321 321 321 319 318 316 313
323 323 324 323 324 324 324 324 323 325 324 325 325 326 327 324 322 322 326 325 325 325 324 323 323 322 322 322 322 321 321 319 320 321 320 318 317 316 314 314 312 311 309 308
324 324 324 324 324 323 323 322 323 326 325 323 326 326 326 326 327 327 324 323 322 322 323 322 319 318 318 321 319 318 315 316 316 316 315 313 313 312 310 309 307 307 306 306
323 323 322 321 320 320 321 322 324 324 325 324 325 326 322 322 321 323 322 322 321 322 322 321 320 318 318 317 312 312 312 311 311 311 310 309 308 308 307 306 306 305 305 304
323 323 322 320 320 319 321 322 321 321 321 322 321 322 321 322 321 320 322 321 319 318 317 317 316 313 311 311 311 310 309 309 308 308 307 306 306 305 304 302 303 302 303 303
323 322 320 319 318 319 319 319 320 319 320 320 320 319 318 320 320 319 318 317 314 311 309 307 307 308 308 309 308 307 307 306 306 305 304 303 302 301 301 301 301 301 300 300
322 319 320 319 317 317 318 317 316 316 316 316 316 315 316 316 316 313 313 311 311 308 304 304 303 304 306 306 306 306 306 306 305 304 302 301 301 301 301 300 299 299 300 299
319 319 319 318 313 315 317 317 316 315 316 314 313 312 311 310 308 305 304 305 305 305 305 305 305 305 305 305 305 305 305 303 303 302 302 302 302 301 301 301 301 301 300 300
319 318 318 318 315 312 311 312 310 310 311 310 309 307 306 306 305 305 305 305 305 305 306 305 305 305 305 305 305 305 305 304 303 302 302 302 302 301 301 301 301 300 300 300

GFSNGP_850_thetae_141.txt.gz
Theta_e
332 334 334 333 333 332 334 334 335 335 335 336 339 337 334 333 335 339 342 345 346 345 347 347 346 346 345 342 339 335 325 323 323 324 327 326 329 333 333 334 335 334 333 332
333 332 333 332 333 334 333 333 333 333 334 337 336 334 332 332 332 333 336 340 345 346 347 348 347 346 344 341 338 328 325 327 327 328 329 328 329 333 334 334 334 332 332 330
336 334 333 333 332 332 332 332 333 334 335 335 336 333 332 332 332 332 332 333 339 345 348 348 348 346 343 340 336 323 325 326 330 328 328 329 331 332 334 333 332 331 329 327
337 335 337 335 334 334 333 333 334 334 334 335 334 332 332 332 331 331 331 332 334 341 347 348 347 344 340 338 334 332 330 332 330 328 328 331 333 334 333 332 329 330 326 325
336 335 336 336 336 334 334 334 333 334 334 333 332 333 333 335 335 335 335 336 337 340 347 347 345 342 338 336 335 333 333 332 329 328 331 333 332 331 332 326 325 326 324 325
336 336 336 335 336 333 333 335 336 334 334 333 333 336 338 339 337 337 339 339 341 343 344 345 343 339 338 336 335 334 333 331 328 327 330 331 328 331 327 326 326 327 324 325
335 335 334 336 334 332 335 337 336 334 335 335 337 336 337 337 337 338 341 341 343 343 343 343 339 338 338 336 336 334 333 327 324 329 331 331 330 331 330 327 327 326 324 323
332 333 333 334 334 333 339 337 336 335 336 336 336 336 336 336 336 336 340 342 343 343 341 337 339 339 338 336 335 334 331 328 330 330 330 329 331 331 330 327 326 325 323 323
338 335 337 333 337 337 336 336 335 334 333 332 333 333 334 336 337 337 339 342 342 340 338 336 339 340 339 338 336 330 330 331 333 331 329 331 331 331 330 327 326 323 323 323
335 336 334 333 332 332 332 332 329 329 328 327 327 327 329 331 335 338 339 340 340 338 336 337 340 341 340 340 334 332 334 333 333 331 330 329 328 326 324 326 326 324 324 323
333 334 332 330 329 329 329 328 326 325 325 324 322 322 323 324 326 329 335 339 340 339 337 337 340 342 341 340 338 336 334 332 332 328 326 326 326 325 323 324 324 321 321 322
330 331 332 331 330 328 327 326 325 323 322 321 320 319 320 319 320 322 325 330 337 339 339 339 338 339 339 336 331 331 330 331 330 326 325 323 324 324 325 324 322 321 321 322
327 328 329 328 329 327 325 323 320 319 318 318 318 319 319 320 321 322 321 321 325 331 336 337 338 336 334 324 322 322 321 331 328 325 323 323 324 324 324 325 324 321 321 319
321 321 321 321 322 321 319 318 318 317 317 318 319 319 319 320 322 322 323 324 323 326 336 337 334 331 325 321 323 323 328 331 327 325 322 324 325 323 323 325 327 324 321 321
317 317 318 318 318 318 318 317 317 317 318 318 317 318 319 321 322 324 324 324 325 333 334 334 330 324 326 329 330 330 331 327 326 325 325 324 324 323 324 324 325 324 323 322
317 318 318 320 320 319 319 320 322 322 322 322 319 319 320 321 323 323 324 325 325 329 332 326 326 330 331 332 332 331 329 327 326 326 325 323 325 325 325 324 324 323 320 318
319 321 321 323 324 324 324 324 323 323 322 321 320 320 320 322 322 322 325 327 329 332 330 322 321 321 322 331 330 328 327 327 324 322 324 325 324 325 324 324 323 320 318 317
321 322 322 322 322 323 324 325 323 322 321 321 322 322 323 323 323 325 328 329 329 328 330 328 327 326 325 328 329 326 324 324 323 321 322 323 325 324 324 323 322 320 319 316
323 324 324 324 324 325 324 324 326 325 325 324 324 324 324 324 325 328 327 328 329 328 329 323 320 323 323 323 323 323 323 322 321 322 322 320 320 322 322 321 319 318 315 312
324 324 325 325 324 324 325 326 326 325 326 325 326 325 325 327 327 329 329 326 325 326 328 324 324 323 323 322 322 322 322 321 320 320 318 321 320 319 317 316 314 312 311 309
325 325 325 325 324 324 324 323 324 326 328 326 327 327 327 328 328 328 327 326 321 322 323 323 323 320 319 320 319 318 320 319 319 317 317 317 317 316 314 312 310 309 308 308
325 324 324 323 322 322 322 322 322 323 324 327 327 328 328 327 326 325 325 323 320 321 322 321 320 320 319 318 317 317 316 316 316 315 314 313 313 311 310 309 308 307 307 306
324 324 324 323 321 320 321 321 321 321 322 323 324 324 324 324 324 324 322 321 319 320 321 319 318 313 313 314 314 314 313 313 313 312 311 310 309 308 307 306 305 306 305 305
324 323 322 320 319 319 318 317 319 320 320 320 320 321 322 321 319 318 319 316 316 316 316 312 311 311 312 313 312 312 312 311 309 309 307 306 305 305 304 304 304 303 303 303
323 322 318 321 319 318 319 319 317 317 317 318 318 318 319 317 315 313 311 309 308 309 307 307 308 309 309 309 309 308 308 308 308 306 305 305 304 304 304 303 303 303 303 303
320 320 319 318 319 319 319 319 318 318 318 317 316 315 314 314 313 312 312 309 307 307 307 307 307 308 308 308 308 308 308 305 305 305 305 305 305 304 304 304 304 303 303 303
321 320 319 317 315 315 316 315 315 315 314 313 311 310 310 310 309 309 308 307 308 308 308 307 307 308 308 308 308 308 308 307 305 305 305 305 305 304 304 304 303 303 303 303

GFSNGP_850_thetae_147.txt.gz
Theta_e
329 330 331 331 331 330 328 330 331 329 334 334 336 335 335 335 337 339 340 339 341 344 350 349 348 349 352 350 349 348 347 345 342 337 326 323 321 320 319 325 331 331 325 323
334 331 330 330 333 331 330 330 332 332 333 337 336 339 338 337 337 337 338 340 341 344 350 349 349 350 350 348 347 346 345 343 341 332 325 323 322 320 322 331 330 328 323 322
332 332 332 332 331 333 331 330 329 330 336 335 336 336 334 334 334 334 335 335 336 338 343 348 349 348 347 346 346 345 343 342 338 327 325 322 322 321 328 331 330 324 324 324
331 334 333 331 333 333 334 332 336 340 339 337 337 335 334 333 333 332 332 332 332 329 335 345 344 347 347 346 345 345 344 342 335 326 323 324 323 326 327 325 323 322 325 325
333 333 336 334 333 336 334 336 339 339 337 336 339 338 339 336 335 336 335 333 326 323 323 334 348 348 347 346 346 346 344 343 331 325 326 326 324 328 326 321 320 322 324 325
334 335 333 334 337 336 336 335 337 336 334 333 337 342 341 338 339 338 337 336 334 335 335 336 345 349 349 348 347 346 343 341 329 329 329 325 328 329 322 321 322 325 324 325
336 334 334 335 336 336 335 339 341 341 339 340 340 340 338 337 338 337 337 339 339 340 335 349 349 350 349 348 346 343 340 335 333 334 331 326 327 328 327 324 326 326 326 325
339 340 341 340 334 338 342 340 340 340 338 338 337 337 337 337 337 338 337 337 340 342 343 342 348 349 348 347 342 340 339 335 335 335 329 329 331 332 331 324 327 327 326 325
339 346 342 341 343 341 338 338 337 336 335 334 334 334 335 336 338 339 338 338 341 343 345 344 344 344 345 344 342 339 336 336 335 332 333 332 324 324 323 325 328 326 324 321
340 342 340 338 336 338 336 335 332 330 330 329 328 329 329 329 329 328 328 334 337 339 341 342 345 345 343 336 341 337 337 335 333 327 326 324 322 320 324 329 329 326 321 320
340 338 336 337 335 333 330 329 327 326 325 324 324 323 323 323 323 322 323 322 322 322 323 330 334 340 339 340 335 336 334 332 329 324 325 323 324 326 326 328 327 323 322 319
336 334 336 334 330 328 327 326 326 325 324 323 322 322 322 322 321 321 322 322 321 323 323 320 323 332 337 338 337 336 331 334 330 326 324 322 323 329 328 327 324 324 322 319
333 333 333 331 329 328 326 325 323 322 322 321 321 320 319 320 320 321 321 323 323 324 325 325 326 328 328 335 336 336 334 331 329 323 323 329 329 328 327 326 324 324 320 321
326 328 326 328 328 327 326 324 321 321 320 319 318 318 318 318 319 320 321 324 325 325 324 326 328 333 331 333 334 333 330 324 322 320 327 329 327 326 325 324 324 322 322 321
321 321 320 321 321 321 321 321 321 320 319 319 320 321 322 321 319 319 322 325 324 323 325 330 329 330 331 331 330 328 327 324 326 325 326 327 326 326 325 324 323 321 319 320
319 319 319 319 320 321 322 322 321 320 321 325 325 324 324 323 322 320 324 324 323 325 327 330 329 329 329 330 329 329 326 327 327 326 326 325 324 323 321 322 324 323 320 317
318 319 320 321 322 324 324 324 324 324 324 324 324 323 322 321 323 325 324 323 326 329 328 328 328 330 330 325 321 321 323 323 324 322 324 322 322 323 323 323 322 318 317 313
320 321 321 322 323 324 325 326 326 326 327 325 324 323 323 323 325 325 324 325 329 329 327 327 327 325 324 323 323 321 320 323 326 323 321 322 322 323 321 321 322 320 314 311
321 322 323 324 326 326 325 326 327 327 327 327 327 326 326 326 325 325 326 326 326 326 327 327 325 323 322 322 325 326 325 324 323 321 321 321 320 321 321 322 321 320 316 310
322 324 324 325 326 326 326 327 327 327 327 327 325 325 326 326 326 327 326 325 325 326 327 326 325 324 324 324 325 324 323 324 323 321 320 320 320 320 320 318 317 313 310 309
325 325 326 325 325 325 325 324 324 324 322 324 326 326 327 328 327 327 326 325 325 322 324 324 323 322 320 321 320 320 321 322 321 320 320 319 318 318 315 312 310 310 309 308
326 326 325 324 324 323 322 321 321 321 322 323 326 326 326 327 327 326 326 326 323 322 322 321 321 322 318 318 318 318 318 318 317 316 315 315 314 312 310 310 309 308 308 308
326 325 324 323 322 320 321 319 320 321 322 323 325 326 326 326 324 323 323 323 321 321 321 321 319 317 315 316 316 317 318 317 315 315 315 314 312 310 308 308 307 307 306 306
324 323 322 321 321 318 318 319 319 319 321 321 323 324 322 323 323 322 322 321 321 320 315 314 314 314 314 314 316 315 314 313 313 311 309 309 308 307 306 306 306 305 304 303
322 320 320 321 320 319 319 318 317 319 320 321 322 321 320 320 320 317 319 319 318 315 312 310 310 310 311 311 311 311 311 310 309 308 306 306 305 305 305 305 304 304 304 304
322 322 321 321 321 321 319 319 319 317 316 316 317 319 319 319 317 315 317 315 315 313 311 310 309 309 309 309 309 309 309 308 307 306 306 306 305 305 305 304 304 305 304 304
320 319 318 318 319 318 318 318 318 318 317 314 313 313 313 312 313 313 312 310 310 309 309 309 309 309 309 310 310 309 307 307 306 306 306 306 306 306 305 305 305 305 305 304